Flag for China Weather past 2 weeks in Shenyang, Liaoning, China

Now
70 °F

Passing clouds.


Feels Like: 70 °F
Forecast: 63 / 81 °F
Wind: 6 mph from North

Location: Shenyang / Taoxian

Current Time: Jul 26, 2014 at 12:09:26 AM

Latest Report: Jul 25, 2014 at 11:30 PM


Visibility: N/A

Pressure: 29.65 "Hg

Humidity: 73%

Dew point: 61 °F

Location of ShenyangLocation

Historic Weather in Shenyang — Graph

°F

Shenyang temperature yesterday

Maximum temperature yesterday: 79 °F (at 1:00 PM)
Minimum temperature yesterday: 66 °F (at 4:30 AM)
Average temperature yesterday: 72 °F

Past Weeks' High & Low Weather Summary

 TemperatureHumidityPressure
High91 °F (Jul 14, 3:00 PM)100% (Jul 12, 5:00 AM)29.86 "Hg (Jul 12, 5:00 AM)
Low64 °F (Jul 12, 4:30 AM)31% (Jul 24, 12:30 PM)29.45 "Hg (Jul 10, 10:00 PM)
Average77 °F75%29.67 "Hg
* Reported Jul 10 10:00 PM — Jul 25 10:30 PM, Shenyang, Weather by CustomWeather, © 2014

Note: Actual official high and low records may vary slightly from our data, if they occured in-between our weather recording intervals... More about our weather records

Advertising

Shenyang weather history for previous 24 hours

 ConditionsComfort  
Time TempWeatherWind HumidityBarometerVisibility
10:30 PM
Jul 25
72 °FClear.8 mph73%29.65 "Hg5 mi
10:00 PM72 °FClear.8 mph78%29.65 "Hg4 mi
9:30 PM72 °FClear.8 mph78%29.65 "Hg4 mi
9:00 PM72 °FClear.10 mph78%29.65 "Hg4 mi
8:30 PM72 °FClear.10 mph78%29.65 "Hg4 mi
8:00 PM73 °FClear.13 mph69%29.65 "Hg4 mi
7:30 PM72 °FClear.13 mph73%29.65 "Hg4 mi
7:00 PM73 °FFog.13 mph69%29.65 "Hg3 mi
6:30 PM73 °FClear.15 mph65%29.65 "Hg4 mi
6:00 PM73 °FClear.13 mph69%29.68 "Hg4 mi
5:30 PM73 °FClear.10 mph74%29.68 "Hg4 mi
5:00 PM75 °FClear.10 mph69%29.68 "Hg4 mi
4:30 PM75 °FClear.10 mph69%29.71 "Hg4 mi
4:00 PM75 °FClear.8 mph69%29.71 "Hg4 mi
3:30 PM75 °FClear.10 mph69%29.71 "Hg4 mi
3:00 PM77 °FFog.8 mph69%29.71 "Hg2 mi
2:30 PM77 °FClear.8 mph69%29.71 "Hg4 mi
2:00 PM77 °FClear.6 mph65%29.71 "Hg5 mi
1:30 PM79 °FClear.3 mph65%29.74 "Hg5 mi
1:00 PM79 °FClear.3 mph65%29.74 "Hg4 mi
12:30 PM77 °FClear.3 mph65%29.74 "Hg4 mi
12:00 PM77 °FFog.6 mph65%29.77 "Hg3 mi
11:30 AM77 °FFog.6 mph65%29.77 "Hg3 mi
10:30 AM75 °FPartly sunny.6 mph74%29.77 "Hg4 mi
10:00 AM73 °FOvercast.6 mph78%29.77 "Hg4 mi
9:30 AM72 °FOvercast.8 mph78%29.77 "Hg4 mi
9:00 AM72 °FClear.6 mph78%29.77 "Hg4 mi
8:30 AM72 °FClear.6 mph78%29.77 "Hg5 mi
8:00 AM70 °FClear.3 mph78%29.77 "Hg5 mi
7:30 AM68 °FClear.6 mph88%29.77 "Hg5 mi
7:00 AM68 °FClear.8 mph88%29.77 "Hg4 mi
6:30 AM68 °FClear.8 mph88%29.77 "Hg4 mi
6:00 AM66 °FClear.8 mph94%29.74 "Hg4 mi
5:30 AM66 °FClear.6 mph94%29.74 "Hg5 mi
5:00 AM66 °FClear.6 mph94%29.74 "Hg5 mi
4:30 AM66 °FClear.6 mph94%29.74 "Hg5 mi
4:00 AM68 °FClear.6 mph94%29.74 "Hg5 mi
3:30 AM68 °FClear.8 mph88%29.74 "Hg10 mi
3:00 AM68 °FClear.3 mph88%29.74 "Hg10 mi
2:30 AM68 °FClear.6 mph88%29.74 "Hg10 mi
2:00 AM70 °FPassing clouds.3 mph78%29.74 "HgN/A
1:30 AM70 °FClear.1 mph83%29.74 "Hg10 mi
1:00 AM70 °FClear.1 mph83%29.77 "Hg10 mi
12:30 AM70 °FPassing clouds.3 mph83%29.77 "HgN/A
12:00 AM70 °FClear.3 mph88%29.77 "Hg10 mi
Weather by CustomWeather, © 2014

See weather overviewHow to use our weather pages